This demonstration page uses our WeatherBlox Daily Observations layout. Learn more.

Left ArrowRight Arrow

36.17497, -115.13722

Hourly Observations for January 24, 2019

Temp ( °F °C ) Dew Point ( °F °C ) Humidity (%) Winds ( mph kmh ) Pressure ( in mb ) Visibility ( mi km ) Precip ( " mm )
12:53 am 00:53 Clear 41 5 21 -6.1 45 45 S 3 6 30.32 1027 10 16.0934 0 0
1:53 am 01:53 Clear 38 3.3 22 -5.6 52 52 ESE 3 6 30.32 1027 10 16.0934 0 0
2:53 am 02:53 Clear 38 3.3 23 -5 55 55 N 3 6 30.31 1027 10 16.0934 0 0
3:53 am 03:53 Clear 37 2.8 22 -5.6 54 54 Calm 30.32 1027 10 16.0934 0 0
4:53 am 04:53 Clear 38 3.3 23 -5 55 55 Calm 30.32 1027 10 16.0934 0 0
5:53 am 05:53 Clear 38 3.3 24 -4.4 57 57 WSW 3 6 30.34 1028 10 16.0934 0 0
6:53 am 06:53 Sunny 40 4.4 23 -5 51 51 Calm 30.36 1028 10 16.0934 0 0
7:53 am 07:53 Sunny 43 6.1 26 -3.3 51 51 E 5 7 30.38 1029 10 16.0934 0 0
8:53 am 08:53 Sunny 48 8.9 28 -2.2 46 46 S 3 6 30.38 1029 10 16.0934 0 0
9:53 am 09:53 Sunny 55 12.8 26 -3.3 33 33 NNE 9 15 30.37 1029 10 16.0934 0 0
10:53 am 10:53 Sunny 56 13.3 27 -2.8 33 33 ESE 8 13 30.36 1028 10 16.0934 0 0
11:53 am 11:53 Sunny 58 14.4 27 -2.8 31 31 ESE 8 13 30.33 1027 10 16.0934 0 0
12:53 pm 12:53 Sunny 60 15.6 25 -3.9 26 26 E 5 7 30.29 1026 10 16.0934 0 0
1:53 pm 13:53 Sunny 60 15.6 25 -3.9 26 26 VRB 3 6 30.29 1026 10 16.0934 0 0
2:53 pm 14:53 Sunny 61 16.1 25 -3.9 25 25 Calm 30.27 1025 10 16.0934 0 0
3:53 pm 15:53 Sunny 61 16.1 25 -3.9 25 25 ESE 6 9 30.27 1025 10 16.0934 0 0
4:53 pm 16:53 Sunny 58 14.4 26 -3.3 29 29 SE 5 7 30.28 1025 10 16.0934 0 0
5:53 pm 17:53 Clear 54 12.2 27 -2.8 35 35 Calm 30.3 1026 10 16.0934 0 0
6:53 pm 18:53 Clear 55 12.8 26 -3.3 33 33 Calm 30.3 1026 10 16.0934 0 0
7:53 pm 19:53 Clear 51 10.6 27 -2.8 39 39 WNW 6 9 30.31 1027 10 16.0934 0 0
8:53 pm 20:53 Clear 50 10 25 -3.9 38 38 NNW 8 13 30.32 1027 10 16.0934 0 0
9:53 pm 21:53 Clear 51 10.6 24 -4.4 35 35 NNW 12 19 30.31 1026 10 16.0934 0 0
10:53 pm 22:53 Clear 50 10 25 -3.9 38 38 N 9 15 30.31 1026 10 16.0934 0 0
11:53 pm 23:53 Clear 47 8.3 26 -3.3 44 44 NW 5 7 30.31 1027 10 16.0934 0 0

Powered by AerisWeather